Regional Weather Roundup
Issued by NWS

Home | Current Version | Previous Version | Graphics & Text | Print | Product List | Glossary On
Versions: 1 2 3 4 5 6 7 8 9 10 11 12 13 14 15 16 17 18 19 20 21 22 23 24 25 26 27 28 29 30 31 32 33 34 35 36 37 38 39 40 41 42 43 44 45 46 47 48 49 50
000
ASUS43 KOAX 170402
RWRNE

WEATHER ROUNDUP FOR NEBRASKA
NATIONAL WEATHER SERVICE OMAHA NE
1100 PM CDT TUE SEP 16 2014

NOTES: SATELLITE DATA IS BEING USED TO AUGMENT CLOUD COVER ABOVE
       12000 FEET.
       "FAIR" INDICATES FEW OR NO CLOUDS BELOW 12,000 FEET WITH NO
       SIGNIFICANT WEATHER AND/OR OBSTRUCTIONS TO VISIBILITY.

  * THESE STATIONS DO NOT REPORT WEATHER SUCH AS RAIN...SNOW OR FOG.

NEZ001>004-019>022-054>056-170500-
NEBRASKA PANHANDLE

CITY           SKY/WX    TMP DP  RH WIND       PRES   REMARKS
SCOTTSBLUFF    CLEAR     59  50  72 E8        30.01R
ALLIANCE       CLEAR     57  44  62 SE5       30.00S
CHADRON        CLEAR     56  48  74 NE6       29.97R
KIMBALL        PTCLDY    59  42  51 S7        30.07S
SIDNEY         CLEAR     58  47  66 S9        30.05R
$$

NEZ057>060-069>072-079>082-170500-
SOUTHWEST NEBRASKA

CITY           SKY/WX    TMP DP  RH WIND       PRES   REMARKS
NORTH PLATTE   CLEAR     54  53  97 E6        29.98F
IMPERIAL       CLEAR     60  55  83 SE3       29.99S
LEXINGTON      CLEAR     58  55  91 SE7       30.00S
MCCOOK         CLEAR     62  58  86 E6        29.99R
OGALLALA       CLEAR     60  57  88 SE3       29.99S
$$

NEZ005>010-023>029-035>040-094-170500-
NORTH CENTRAL NEBRASKA

CITY           SKY/WX    TMP DP  RH WIND       PRES   REMARKS
VALENTINE      CLEAR     54  52  93 CALM      29.94S
BROKEN BOW     CLEAR     56  54  93 CALM      29.98S
O`NEILL        CLEAR     58  56  92 S9        29.96R
ORD            CLEAR     56  53  90 S3        29.97S
THEDFORD       CLEAR     63  58  83 SW9       29.97R
$$

NEZ041-046>049-061>064-073>077-083>087-170500-
SOUTH CENTRAL NEBRASKA

CITY           SKY/WX    TMP DP  RH WIND       PRES   REMARKS
GRAND ISLAND   CLEAR     58  51  78 S6        30.00S
HASTINGS       CLEAR     60  48  64 SE9       30.00F
HEBRON         MOCLDY    57  52  84 CALM      30.00S
HOLDREGE       CLEAR     55  53  90 CALM      30.00S
KEARNEY *      CLEAR     55  52  88 SE7       30.01R
YORK           MOCLDY    59  54  82 S8        30.00F
$$

NEZ011>018-030>034-042>045-170500-
NORTHEAST NEBRASKA

CITY           SKY/WX    TMP DP  RH WIND       PRES   REMARKS
NORFOLK        CLEAR     58  50  75 SE9       29.98F
ALBION         CLEAR     54  50  86 SE3       29.98F
COLUMBUS *     CLOUDY    63  54  72 S3        30.00S
FREMONT        CLOUDY    64  51  63 SE8       30.00F
TEKAMAH        CLOUDY    60  54  80 SE3       30.00F
WAYNE          PTCLDY    57  52  83 S8        29.99S
$$

NEZ050>053-065>068-078-088>093-170500-
SOUTHEAST NEBRASKA

CITY           SKY/WX    TMP DP  RH WIND       PRES   REMARKS
LINCOLN        CLOUDY    64  52  64 S8        30.01F
OMAHA EPPLEY   CLOUDY    63  50  62 SE7       30.01F
BEATRICE       CLOUDY    64  54  69 SE3       30.00F
FALLS CITY     CLOUDY    62  55  77 SE6       30.02F
NEBRASKA CITY  CLOUDY    62  47  59 SE7       30.02R
PLATTSMOUTH    CLOUDY    61  50  66 SE5       30.02S
$$

NEZ044-045-051>053-067-170500-
OMAHA AREA

CITY           SKY/WX    TMP DP  RH WIND       PRES   REMARKS
OMAHA EPPLEY   CLOUDY    63  50  62 SE7       30.01F
FREMONT        CLOUDY    64  51  63 SE8       30.00F
MILLARD        CLOUDY    64  52  65 SE6       30.01S
OFFUTT AFB     CLOUDY    61  57  86 SE5       30.01F
PLATTSMOUTH    CLOUDY    61  50  66 SE5       30.02S
WAHOO          CLOUDY    61  53  75 SE3       30.00F
$$



USA.gov is the U.S. government's official web portal to all federal, state and local government web resources and services.